Project,Study,Ord_Occ,Event_Num,Cast_ID,Date_Time_UTC,Date_Time_PST,Lat_Dec,Lon_Dec,Sta_ID,Line,Sta,Depth,Pressure,PrQ,Temp1,Temp1Q,Temp2,Temp2Q,TempAve,Salt1,Salt1Q,Salt1_Corr,Salt2,Salt2Q,Salt2_Corr,SaltAve_Corr,Ox1,Ox1Q,Ox1_CruiseCorr,Ox1_StaCorr,Ox2,Ox2Q,Ox2_CruiseCorr,Ox2_StaCorr,OxAve_StaCorr,Ox1uM,Ox1uM_CruiseCorr,Ox1uM_StaCorr,Ox2uM,Ox2uM_CruiseCorr,Ox2uM_StaCorr,OxAveuM_StaCorr,FluorV,FluorQ,EstChl_CruiseCorr,EstChl_StaCorr,ISUSV,ISUSQ,EstNO3_CruiseCorr,EstNO3_StaCorr,SigThetaTS1,SigThetaTS1Q,SigThetaTS2,SigThetaTS2Q,BAT,XMiss,TransQ,pH,pHQ,SPAR,SPARQ,PAR,PARQ,PoT1,PoT2,DynHt,SVA,OxSat1,OxSat2,BTL_Depth,BTL_Temp,SaltB,OxB,OxBuM,Chl-a,Phaeo,NO3,NO2,NH4,PO4,SIL
CalCOFI,2007SR,009,10,2007_009u,14-Jul-2020 18:27:29,14-Jul-2020 10:27:29,32.18026,-118.88911,093.3 050.0,093.3,050.0,516.000,520.282,,5.9340,,5.9316,,5.9328,34.3223,,34.3225,34.3238,,34.3254,34.3240,0.2863,,0.2815,0.3102,1.6961,,0.1079,0.5720,0.4411,12.450,12.5085,13.4332,73.754,,27.6466,20.5399,0.0325,,,,-99.0,,-99.0,-99.0,27.0312,,27.0326,,0.6252,85.5313,,7.590,,1.1080E+03,,1.0000E-12,,5.8889,5.8865,0.8332,,4.119,24.401,516,5.934,34.3355,0.277,12.09,,,41.00,0.00,0.00,3.15,79.13
CalCOFI,2007SR,009,10,2007_009u,14-Jul-2020 18:27:41,14-Jul-2020 10:27:41,32.18026,-118.88910,093.3 050.0,093.3,050.0,515.000,519.272,,5.9297,,5.9289,,5.9293,34.3223,,34.3225,34.3235,,34.3251,34.3238,0.2862,,0.2814,0.3101,1.6823,,0.0750,0.5333,0.4217,12.445,12.5032,13.4281,73.155,,25.9728,19.7005,0.0323,,,,-99.0,,-99.0,-99.0,27.0316,,27.0327,,0.6247,85.5429,,7.590,,1.0988E+03,,1.0000E-12,,5.8847,5.8839,0.8339,,4.117,24.201,,,,,,,,,,,,
CalCOFI,2007SR,009,10,2007_009u,14-Jul-2020 18:27:44,14-Jul-2020 10:27:44,32.18026,-118.88910,093.3 050.0,093.3,050.0,514.000,518.262,,5.9298,,5.9294,,5.9296,34.3222,,34.3224,34.3236,,34.3252,34.3238,0.2865,,0.2817,0.3104,1.6840,,0.0790,0.5381,0.4243,12.457,12.5158,13.4405,73.227,,26.1740,19.8073,0.0324,,,,-99.0,,-99.0,-99.0,27.0315,,27.0327,,0.6247,85.5421,,7.590,,1.1041E+03,,1.0000E-12,,5.8849,5.8845,0.8339,,4.121,24.225,,,,,,,,,,,,
CalCOFI,2007SR,009,10,2007_009u,14-Jul-2020 18:27:45,14-Jul-2020 10:27:45,32.18026,-118.88910,093.3 050.0,093.3,050.0,513.000,517.253,,5.9420,,5.9421,,5.9421,34.3208,,34.3210,34.3221,,34.3237,34.3224,0.2862,,0.2814,0.3101,1.6774,,0.0633,0.5195,0.4148,12.446,12.5043,13.4291,72.941,,25.3748,19.4020,0.0325,,,,-99.0,,-99.0,-99.0,27.0289,,27.0299,,0.6265,85.5024,,7.590,,1.0996E+03,,1.0000E-12,,5.8972,5.8972,0.8339,,4.119,24.137,,,,,,,,,,,,
CalCOFI,2007SR,009,10,2007_009u,14-Jul-2020 18:27:46,14-Jul-2020 10:27:46,32.18026,-118.88910,093.3 050.0,093.3,050.0,512.000,516.243,,5.9478,,5.9472,,5.9475,34.3206,,34.3208,34.3218,,34.3234,34.3221,0.2861,,0.2812,0.3100,1.6729,,0.0525,0.5069,0.4085,12.443,12.5011,13.4260,72.746,,24.8299,19.1280,0.0319,,,,-99.0,,-99.0,-99.0,27.0280,,27.0291,,0.6250,85.5354,,7.591,,1.0943E+03,,1.0000E-12,,5.9030,5.9024,0.8339,,4.118,24.076,,,,,,,,,,,,
CalCOFI,2007SR,009,10,2007_009u,14-Jul-2020 18:27:47,14-Jul-2020 10:27:47,32.18026,-118.88910,093.3 050.0,093.3,050.0,511.000,515.234,,5.9501,,5.9506,,5.9504,34.3206,,34.3208,34.3218,,34.3234,34.3221,0.2888,,0.2841,0.3128,1.6762,,0.0604,0.5161,0.4145,12.558,12.6212,13.5452,72.889,,25.2295,19.3874,0.0331,,,,-99.0,,-99.0,-99.0,27.0277,,27.0286,,0.6252,85.5309,,7.590,,1.0933E+03,,1.0000E-12,,5.9054,5.9058,0.8339,,4.156,24.125,,,,,,,,,,,,
CalCOFI,2007SR,009,10,2007_009u,14-Jul-2020 18:27:48,14-Jul-2020 10:27:48,32.18026,-118.88910,093.3 050.0,093.3,050.0,510.000,514.224,,5.9645,,5.9659,,5.9652,34.3214,,34.3216,34.3230,,34.3246,34.3231,0.2936,,0.2891,0.3177,1.6750,,0.0575,0.5128,0.4153,12.769,12.8415,13.7639,72.835,,25.0786,19.4213,0.0326,,,,-99.0,,-99.0,-99.0,27.0265,,27.0276,,0.6254,85.5270,,7.590,,1.0962E+03,,1.0000E-12,,5.9198,5.9212,0.8339,,4.228,24.116,,,,,,,,,,,,
CalCOFI,2007SR,009,10,2007_009u,14-Jul-2020 18:27:49,14-Jul-2020 10:27:49,32.18026,-118.88910,093.3 050.0,093.3,050.0,509.000,513.215,,5.9810,,5.9815,,5.9813,34.3210,,34.3212,34.3222,,34.3238,34.3225,0.2914,,0.2868,0.3154,1.6672,,0.0389,0.4909,0.4032,12.669,12.7371,13.6603,72.500,,24.1425,18.9014,0.0319,,,,-99.0,,-99.0,-99.0,27.0242,,27.0250,,0.6254,85.5269,,7.590,,1.0988E+03,,1.0000E-12,,5.9363,5.9368,0.8339,,4.196,24.014,,,,,,,,,,,,
CalCOFI,2007SR,009,10,2007_009u,14-Jul-2020 18:27:50,14-Jul-2020 10:27:50,32.18027,-118.88910,093.3 050.0,093.3,050.0,508.000,512.205,,5.9858,,5.9869,,5.9864,34.3210,,34.3212,34.3221,,34.3237,34.3225,0.2934,,0.2889,0.3175,1.6678,,0.0403,0.4926,0.4051,12.761,12.8331,13.7557,72.522,,24.2040,18.9799,0.0320,,,,-99.0,,-99.0,-99.0,27.0235,,27.0242,,0.6254,85.5269,,7.590,,1.0979E+03,,1.0000E-12,,5.9412,5.9423,0.8339,,4.227,24.024,,,,,,,,,,,,
CalCOFI,2007SR,009,10,2007_009u,14-Jul-2020 18:27:51,14-Jul-2020 10:27:51,32.18026,-118.88910,093.3 050.0,093.3,050.0,507.000,511.196,,5.9992,,5.9996,,5.9994,34.3209,,34.3211,34.3223,,34.3239,34.3225,0.2986,,0.2943,0.3229,1.6696,,0.0446,0.4976,0.4103,12.986,13.0680,13.9889,72.602,,24.4275,19.2082,0.0322,,,,-99.0,,-99.0,-99.0,27.0217,,27.0228,,0.6255,85.5248,,7.590,,1.0947E+03,,1.0000E-12,,5.9547,5.9550,0.8339,,4.303,24.058,,,,,,,,,,,,
CalCOFI,2007SR,009,10,2007_009u,14-Jul-2020 18:27:52,14-Jul-2020 10:27:52,32.18026,-118.88910,093.3 050.0,093.3,050.0,506.000,510.186,,6.0099,,6.0104,,6.0102,34.3205,,34.3207,34.3215,,34.3231,34.3219,0.2941,,0.2896,0.3182,1.6682,,0.0413,0.4937,0.4060,12.789,12.8623,13.7847,72.540,,24.2543,19.0195,0.0333,,,,-99.0,,-99.0,-99.0,27.0201,,27.0208,,0.6259,85.5166,,7.590,,1.0909E+03,,1.0000E-12,,5.9653,5.9659,0.8339,,4.239,24.043,,,,,,,,,,,,
CalCOFI,2007SR,009,10,2007_009u,14-Jul-2020 18:27:53,14-Jul-2020 10:27:53,32.18026,-118.88910,093.3 050.0,093.3,050.0,505.000,509.177,,6.0182,,6.0184,,6.0183,34.3203,,34.3205,34.3216,,34.3232,34.3219,0.3008,,0.2966,0.3252,1.6668,,0.0380,0.4897,0.4075,13.081,13.1672,14.0874,72.482,,24.0922,19.0898,0.0323,,,,-99.0,,-99.0,-99.0,27.0189,,27.0199,,0.6263,85.5070,,7.591,,1.0892E+03,,1.0000E-12,,5.9737,5.9739,0.8339,,4.336,24.028,,,,,,,,,,,,
CalCOFI,2007SR,009,10,2007_009u,14-Jul-2020 18:27:55,14-Jul-2020 10:27:55,32.18026,-118.88910,093.3 050.0,093.3,050.0,504.000,508.167,,6.0236,,6.0239,,6.0238,34.3200,,34.3202,34.3211,,34.3227,34.3215,0.3003,,0.2961,0.3247,1.6616,,0.0255,0.4751,0.3999,13.059,13.1442,14.0646,72.254,,23.4551,18.7599,0.0333,,,,-99.0,,-99.0,-99.0,27.0180,,27.0188,,0.6262,85.5102,,7.591,,1.0892E+03,,1.0000E-12,,5.9792,5.9796,0.8339,,4.330,23.956,,,,,,,,,,,,
CalCOFI,2007SR,009,10,2007_009u,14-Jul-2020 18:27:55,14-Jul-2020 10:27:55,32.18026,-118.88910,093.3 050.0,093.3,050.0,503.000,507.158,,6.0264,,6.0273,,6.0269,34.3198,,34.3200,34.3208,,34.3224,34.3212,0.3053,,0.3013,0.3298,1.6584,,0.0179,0.4662,0.3980,13.275,13.3697,14.2885,72.116,,23.0695,18.6790,0.0325,,,,-99.0,,-99.0,-99.0,27.0174,,27.0181,,0.6258,85.5173,,7.591,,1.0912E+03,,1.0000E-12,,5.9821,5.9830,0.8339,,4.402,23.912,,,,,,,,,,,,
CalCOFI,2007SR,009,10,2007_009u,14-Jul-2020 18:27:56,14-Jul-2020 10:27:56,32.18026,-118.88910,093.3 050.0,093.3,050.0,502.000,506.148,,6.0315,,6.0326,,6.0321,34.3193,,34.3195,34.3203,,34.3219,34.3207,0.3025,,0.2984,0.3269,1.6601,,0.0220,0.4709,0.3989,13.156,13.2454,14.1651,72.192,,23.2819,18.7235,0.0322,,,,-99.0,,-99.0,-99.0,27.0164,,27.0170,,0.6265,85.5034,,7.591,,1.0933E+03,,1.0000E-12,,5.9873,5.9884,0.8339,,4.363,23.940,,,,,,,,,,,,
CalCOFI,2007SR,009,10,2007_009u,14-Jul-2020 18:27:57,14-Jul-2020 10:27:57,32.18026,-118.88910,093.3 050.0,093.3,050.0,501.000,505.139,,6.0416,,6.0435,,6.0426,34.3187,,34.3189,34.3198,,34.3214,34.3202,0.3007,,0.2965,0.3251,1.6611,,0.0243,0.4737,0.3994,13.077,13.1630,14.0832,72.235,,23.4020,18.7426,0.0320,,,,-99.0,,-99.0,-99.0,27.0146,,27.0152,,0.6265,85.5034,,7.592,,1.0950E+03,,1.0000E-12,,5.9974,5.9993,0.8339,,4.337,23.960,,,,,,,,,,,,
CalCOFI,2007SR,009,10,2007_009u,14-Jul-2020 18:27:59,14-Jul-2020 10:27:59,32.18026,-118.88910,093.3 050.0,093.3,050.0,500.000,504.129,,6.0494,,6.0501,,6.0498,34.3179,,34.3181,34.3190,,34.3206,34.3194,0.3028,,0.2987,0.3272,1.6607,,0.0234,0.4726,0.3999,13.169,13.2590,14.1786,72.214,,23.3433,18.7610,0.0315,,,,-99.0,,-99.0,-99.0,27.0130,,27.0137,,0.6265,85.5034,,7.593,,1.0930E+03,,1.0000E-12,,6.0053,6.0060,0.8339,,4.369,23.956,,,,,,,,,,,,
CalCOFI,2007SR,009,10,2007_009u,14-Jul-2020 18:28:00,14-Jul-2020 10:28:00,32.18026,-118.88910,093.3 050.0,093.3,050.0,499.000,503.120,,6.0526,,6.0533,,6.0530,34.3178,,34.3180,34.3186,,34.3202,34.3191,0.3033,,0.2992,0.3278,1.6603,,0.0224,0.4715,0.3997,13.188,13.2789,14.1983,72.199,,23.3014,18.7499,0.0314,,,,-99.0,,-99.0,-99.0,27.0125,,27.0130,,0.6265,85.5034,,7.591,,1.0899E+03,,1.0000E-12,,6.0086,6.0093,0.8339,,4.375,23.953,,,,,,,,,,,,
CalCOFI,2007SR,009,10,2007_009u,14-Jul-2020 18:28:01,14-Jul-2020 10:28:01,32.18026,-118.88910,093.3 050.0,093.3,050.0,498.000,502.110,,6.0549,,6.0554,,6.0552,34.3176,,34.3178,34.3184,,34.3200,34.3189,0.3089,,0.3051,0.3335,1.6577,,0.0162,0.4642,0.3989,13.432,13.5336,14.4513,72.084,,22.9801,18.7157,0.0337,,,,-99.0,,-99.0,-99.0,27.0121,,27.0126,,0.6265,85.5034,,7.592,,1.0864E+03,,1.0000E-12,,6.0110,6.0114,0.8339,,4.456,23.916,,,,,,,,,,,,
CalCOFI,2007SR,009,10,2007_009u,14-Jul-2020 18:28:01,14-Jul-2020 10:28:01,32.18026,-118.88910,093.3 050.0,093.3,050.0,497.000,501.101,,6.0594,,6.0601,,6.0598,34.3175,,34.3177,34.3186,,34.3202,34.3190,0.3034,,0.2993,0.3279,1.6496,,-99.0,0.4414,0.3847,13.195,13.2862,14.2056,71.731,,21.9937,18.0997,0.0320,,,,-99.0,,-99.0,-99.0,27.0113,,27.0121,,0.6265,85.5034,,7.594,,1.0836E+03,,1.0000E-12,,6.0156,6.0163,0.8339,,4.378,23.802,,,,,,,,,,,,
CalCOFI,2007SR,009,10,2007_009u,14-Jul-2020 18:28:02,14-Jul-2020 10:28:02,32.18026,-118.88910,093.3 050.0,093.3,050.0,496.000,500.091,,6.0665,,6.0672,,6.0669,34.3169,,34.3171,34.3180,,34.3196,34.3184,0.3032,,0.2991,0.3276,1.6493,,-99.0,0.4406,0.3841,13.185,13.2757,14.1952,71.721,,21.9657,18.0805,0.0326,,,,-99.0,,-99.0,-99.0,27.0100,,27.0107,,0.6265,85.5034,,7.593,,1.0818E+03,,1.0000E-12,,6.0227,6.0234,0.8339,,4.376,23.802,,,,,,,,,,,,
CalCOFI,2007SR,009,10,2007_009u,14-Jul-2020 18:28:03,14-Jul-2020 10:28:03,32.18026,-118.88911,093.3 050.0,093.3,050.0,495.000,499.082,,6.0745,,6.0752,,6.0749,34.3168,,34.3170,34.3178,,34.3194,34.3182,0.3043,,0.3003,0.3288,1.6531,,0.0052,0.4513,0.3901,13.232,13.3248,14.2439,71.886,,22.4268,18.3354,0.0331,,,,-99.0,,-99.0,-99.0,27.0089,,27.0096,,0.6265,85.5034,,7.594,,1.0824E+03,,1.0000E-12,,6.0308,6.0314,0.8339,,4.392,23.861,,,,,,,,,,,,
CalCOFI,2007SR,009,10,2007_009u,14-Jul-2020 18:28:04,14-Jul-2020 10:28:04,32.18026,-118.88912,093.3 050.0,093.3,050.0,494.000,498.072,,6.0831,,6.0845,,6.0838,34.3159,,34.3161,34.3173,,34.3189,34.3175,0.3096,,0.3058,0.3343,1.6528,,0.0045,0.4504,0.3924,13.465,13.5680,14.4855,71.875,,22.3961,18.4408,0.0322,,,,-99.0,,-99.0,-99.0,27.0071,,27.0080,,0.6265,85.5034,,7.594,,1.0846E+03,,1.0000E-12,,6.0394,6.0408,0.8339,,4.470,23.863,,,,,,,,,,,,
CalCOFI,2007SR,009,10,2007_009u,14-Jul-2020 18:28:06,14-Jul-2020 10:28:06,32.18026,-118.88910,093.3 050.0,093.3,050.0,493.000,497.063,,6.0869,,6.0879,,6.0874,34.3159,,34.3161,34.3169,,34.3185,34.3173,0.3072,,0.3033,0.3318,1.6525,,0.0038,0.4496,0.3907,13.359,13.4574,14.3756,71.860,,22.3541,18.3649,0.0318,,,,-99.0,,-99.0,-99.0,27.0066,,27.0072,,0.6264,85.5048,,7.594,,1.0850E+03,,1.0000E-12,,6.0433,6.0443,0.8339,,4.435,23.859,,,,,,,,,,,,
CalCOFI,2007SR,009,10,2007_009u,14-Jul-2020 18:28:07,14-Jul-2020 10:28:07,32.18026,-118.88910,093.3 050.0,093.3,050.0,492.000,496.053,,6.0892,,6.0898,,6.0895,34.3158,,34.3160,34.3166,,34.3182,34.3171,0.3065,,0.3026,0.3311,1.6522,,0.0031,0.4487,0.3899,13.326,13.4229,14.3414,71.847,,22.3178,18.3296,0.0332,,,,-99.0,,-99.0,-99.0,27.0062,,27.0068,,0.6265,85.5034,,7.594,,1.0835E+03,,1.0000E-12,,6.0457,6.0463,0.8339,,4.425,23.856,,,,,,,,,,,,
CalCOFI,2007SR,009,10,2007_009u,14-Jul-2020 18:28:08,14-Jul-2020 10:28:08,32.18026,-118.88910,093.3 050.0,093.3,050.0,491.000,495.044,,6.0911,,6.0915,,6.0913,34.3152,,34.3154,34.3163,,34.3179,34.3167,0.3064,,0.3025,0.3310,1.6519,,0.0024,0.4479,0.3895,13.324,13.4208,14.3393,71.835,,22.2843,18.3118,0.0319,,,,-99.0,,-99.0,-99.0,27.0055,,27.0063,,0.6265,85.5034,,7.595,,1.0835E+03,,1.0000E-12,,6.0477,6.0480,0.8339,,4.424,23.853,,,,,,,,,,,,
CalCOFI,2007SR,009,10,2007_009u,14-Jul-2020 18:28:09,14-Jul-2020 10:28:09,32.18026,-118.88910,093.3 050.0,093.3,050.0,490.000,494.035,,6.0908,,6.0911,,6.0910,34.3154,,34.3156,34.3163,,34.3179,34.3168,0.3064,,0.3025,0.3310,1.6517,,0.0019,0.4473,0.3892,13.322,13.4187,14.3372,71.826,,22.2591,18.2982,0.0327,,,,-99.0,,-99.0,-99.0,27.0057,,27.0063,,0.6265,85.5034,,7.594,,1.0845E+03,,1.0000E-12,,6.0475,6.0478,0.8339,,4.424,23.850,,,,,,,,,,,,
CalCOFI,2007SR,009,10,2007_009u,14-Jul-2020 18:28:10,14-Jul-2020 10:28:10,32.18026,-118.88910,093.3 050.0,093.3,050.0,489.000,493.025,,6.0914,,6.0917,,6.0916,34.3156,,34.3158,34.3163,,34.3179,34.3169,0.3064,,0.3025,0.3310,1.6515,,0.0014,0.4468,0.3889,13.324,13.4208,14.3393,71.815,,22.2284,18.2839,0.0320,,,,-99.0,,-99.0,-99.0,27.0057,,27.0062,,0.6265,85.5034,,7.595,,1.0854E+03,,1.0000E-12,,6.0481,6.0485,0.8339,,4.424,23.847,,,,,,,,,,,,
CalCOFI,2007SR,009,10,2007_009u,14-Jul-2020 18:28:11,14-Jul-2020 10:28:11,32.18026,-118.88911,093.3 050.0,093.3,050.0,488.000,492.016,,6.0927,,6.0927,,6.0927,34.3151,,34.3153,34.3162,,34.3178,34.3166,0.3076,,0.3037,0.3322,1.6505,,-99.0,0.4440,0.3881,13.374,13.4730,14.3911,71.774,,22.1138,18.2525,0.0325,,,,-99.0,,-99.0,-99.0,27.0051,,27.0060,,0.6265,85.5034,,7.595,,1.0849E+03,,1.0000E-12,,6.0495,6.0495,0.8339,,4.441,23.833,,,,,,,,,,,,
CalCOFI,2007SR,009,10,2007_009u,14-Jul-2020 18:28:11,14-Jul-2020 10:28:11,32.18026,-118.88912,093.3 050.0,093.3,050.0,487.000,491.006,,6.0952,,6.0955,,6.0954,34.3151,,34.3153,34.3160,,34.3176,34.3165,0.3068,,0.3029,0.3314,1.6467,,-99.0,0.4333,0.3824,13.342,13.4396,14.3580,71.608,,21.6500,18.0040,0.0326,,,,-99.0,,-99.0,-99.0,27.0048,,27.0055,,0.6265,85.5034,,7.595,,1.0826E+03,,1.0000E-12,,6.0521,6.0524,0.8339,,4.431,23.780,,,,,,,,,,,,
CalCOFI,2007SR,009,10,2007_009u,14-Jul-2020 18:28:12,14-Jul-2020 10:28:12,32.18026,-118.88912,093.3 050.0,093.3,050.0,486.000,489.997,,6.0982,,6.0984,,6.0983,34.3147,,34.3149,34.3158,,34.3174,34.3162,0.3091,,0.3053,0.3337,1.6451,,-99.0,0.4288,0.3813,13.440,13.5419,14.4596,71.536,,21.4488,17.9542,0.0323,,,,-99.0,,-99.0,-99.0,27.0041,,27.0050,,0.6263,85.5075,,7.595,,1.0790E+03,,1.0000E-12,,6.0552,6.0554,0.8339,,4.464,23.758,,,,,,,,,,,,
CalCOFI,2007SR,009,10,2007_009u,14-Jul-2020 18:28:13,14-Jul-2020 10:28:13,32.18026,-118.88912,093.3 050.0,093.3,050.0,485.000,488.987,,6.1005,,6.1007,,6.1006,34.3145,,34.3147,34.3156,,34.3172,34.3160,0.3130,,0.3094,0.3378,1.6474,,-99.0,0.4353,0.3866,13.609,13.7183,14.6348,71.638,,21.7338,18.1843,0.0322,,,,-99.0,,-99.0,-99.0,27.0037,,27.0045,,0.6265,85.5034,,7.595,,1.0761E+03,,1.0000E-12,,6.0576,6.0578,0.8339,,4.520,23.793,,,,,,,,,,,,
CalCOFI,2007SR,009,10,2007_009u,14-Jul-2020 18:28:14,14-Jul-2020 10:28:14,32.18026,-118.88912,093.3 050.0,093.3,050.0,484.000,487.978,,6.1023,,6.1028,,6.1026,34.3141,,34.3143,34.3151,,34.3167,34.3155,0.3112,,0.3075,0.3359,1.6450,,-99.0,0.4285,0.3822,13.533,13.6390,14.5560,71.535,,21.4460,18.0010,0.0326,,,,-99.0,,-99.0,-99.0,27.0031,,27.0039,,0.6265,85.5034,,7.595,,1.0759E+03,,1.0000E-12,,6.0595,6.0599,0.8339,,4.495,23.759,,,,,,,,,,,,
CalCOFI,2007SR,009,10,2007_009u,14-Jul-2020 18:28:16,14-Jul-2020 10:28:16,32.18026,-118.88912,093.3 050.0,093.3,050.0,483.000,486.969,,6.1044,,6.1052,,6.1048,34.3141,,34.3143,34.3151,,34.3167,34.3155,0.3103,,0.3065,0.3350,1.6446,,-99.0,0.4274,0.3812,13.492,13.5962,14.5135,71.518,,21.3985,17.9560,0.0327,,,,-99.0,,-99.0,-99.0,27.0028,,27.0035,,0.6265,85.5034,,7.595,,1.0767E+03,,1.0000E-12,,6.0617,6.0624,0.8339,,4.481,23.755,,,,,,,,,,,,
CalCOFI,2007SR,009,10,2007_009u,14-Jul-2020 18:28:17,14-Jul-2020 10:28:17,32.18026,-118.88912,093.3 050.0,093.3,050.0,482.000,485.959,,6.1068,,6.1070,,6.1069,34.3138,,34.3140,34.3147,,34.3163,34.3152,0.3098,,0.3060,0.3345,1.6444,,-99.0,0.4268,0.3807,13.473,13.5764,14.4938,71.509,,21.3733,17.9336,0.0321,,,,-99.0,,-99.0,-99.0,27.0023,,27.0030,,0.6265,85.5042,,7.595,,1.0782E+03,,1.0000E-12,,6.0641,6.0643,0.8339,,4.475,23.753,,,,,,,,,,,,
CalCOFI,2007SR,009,10,2007_009u,14-Jul-2020 18:28:18,14-Jul-2020 10:28:18,32.18026,-118.88910,093.3 050.0,093.3,050.0,481.000,484.950,,6.1080,,6.1082,,6.1081,34.3136,,34.3138,34.3146,,34.3162,34.3150,0.3141,,0.3105,0.3389,1.6429,,-99.0,0.4226,0.3808,13.660,13.7716,14.6876,71.444,,21.1917,17.9397,0.0320,,,,-99.0,,-99.0,-99.0,27.0020,,27.0027,,0.6265,85.5034,,7.595,,1.0797E+03,,1.0000E-12,,6.0655,6.0656,0.8339,,4.538,23.732,,,,,,,,,,,,
CalCOFI,2007SR,009,10,2007_009u,14-Jul-2020 18:28:19,14-Jul-2020 10:28:19,32.18026,-118.88910,093.3 050.0,093.3,050.0,480.000,483.940,,6.1093,,6.1097,,6.1095,34.3135,,34.3137,34.3145,,34.3161,34.3149,0.3177,,0.3143,0.3426,1.6438,,-99.0,0.4252,0.3839,13.814,13.9323,14.8473,71.482,,21.2979,18.0726,0.0326,,,,-99.0,,-99.0,-99.0,27.0017,,27.0024,,0.6265,85.5034,,7.595,,1.0797E+03,,1.0000E-12,,6.0669,6.0672,0.8339,,4.589,23.746,,,,,,,,,,,,
CalCOFI,2007SR,009,10,2007_009u,14-Jul-2020 18:28:20,14-Jul-2020 10:28:20,32.18026,-118.88910,093.3 050.0,093.3,050.0,479.000,482.931,,6.1132,,6.1143,,6.1138,34.3132,,34.3134,34.3142,,34.3158,34.3146,0.3135,,0.3099,0.3383,1.6434,,-99.0,0.4240,0.3812,13.634,13.7444,14.6607,71.463,,21.2448,17.9528,0.0325,,,,-99.0,,-99.0,-99.0,27.0009,,27.0016,,0.6265,85.5034,,7.595,,1.0794E+03,,1.0000E-12,,6.0708,6.0719,0.8339,,4.530,23.742,,,,,,,,,,,,
CalCOFI,2007SR,009,10,2007_009u,14-Jul-2020 18:28:21,14-Jul-2020 10:28:21,32.18026,-118.88912,093.3 050.0,093.3,050.0,478.000,481.922,,6.1178,,6.1183,,6.1181,34.3126,,34.3128,34.3136,,34.3152,34.3140,0.3131,,0.3095,0.3379,1.6430,,-99.0,0.4229,0.3804,13.616,13.7256,14.6420,71.447,,21.2001,17.9211,0.0314,,,,-99.0,,-99.0,-99.0,26.9999,,27.0006,,0.6265,85.5034,,7.595,,1.0778E+03,,1.0000E-12,,6.0755,6.0760,0.8339,,4.524,23.738,,,,,,,,,,,,
CalCOFI,2007SR,009,10,2007_009u,14-Jul-2020 18:28:22,14-Jul-2020 10:28:22,32.18026,-118.88912,093.3 050.0,093.3,050.0,477.000,480.912,,6.1204,,6.1212,,6.1208,34.3123,,34.3125,34.3134,,34.3150,34.3138,0.3131,,0.3095,0.3379,1.6426,,-99.0,0.4218,0.3799,13.614,13.7236,14.6399,71.432,,21.1582,17.8991,0.0323,,,,-99.0,,-99.0,-99.0,26.9993,,27.0001,,0.6265,85.5034,,7.595,,1.0763E+03,,1.0000E-12,,6.0782,6.0789,0.8339,,4.523,23.735,,,,,,,,,,,,
CalCOFI,2007SR,009,10,2007_009u,14-Jul-2020 18:28:23,14-Jul-2020 10:28:23,32.18026,-118.88912,093.3 050.0,093.3,050.0,476.000,479.903,,6.1242,,6.1249,,6.1246,34.3122,,34.3124,34.3131,,34.3147,34.3136,0.3133,,0.3097,0.3381,1.6423,,-99.0,0.4209,0.3795,13.624,13.7340,14.6503,71.416,,21.1134,17.8819,0.0330,,,,-99.0,,-99.0,-99.0,26.9987,,26.9993,,0.6265,85.5034,,7.595,,1.0735E+03,,1.0000E-12,,6.0820,6.0827,0.8339,,4.527,23.732,,,,,,,,,,,,
CalCOFI,2007SR,009,10,2007_009u,14-Jul-2020 18:28:23,14-Jul-2020 10:28:23,32.18026,-118.88912,093.3 050.0,093.3,050.0,475.000,478.894,,6.1284,,6.1290,,6.1287,34.3122,,34.3124,34.3132,,34.3148,34.3136,0.3184,,0.3150,0.3434,1.6419,,-99.0,0.4198,0.3816,13.848,13.9678,14.8825,71.399,,21.0659,17.9742,0.0330,,,,-99.0,,-99.0,-99.0,26.9982,,26.9989,,0.6265,85.5034,,7.595,,1.0712E+03,,1.0000E-12,,6.0863,6.0869,0.8339,,4.602,23.728,,,,,,,,,,,,
CalCOFI,2007SR,009,10,2007_009u,14-Jul-2020 18:28:24,14-Jul-2020 10:28:24,32.18026,-118.88912,093.3 050.0,093.3,050.0,474.000,477.884,,6.1378,,6.1371,,6.1375,34.3120,,34.3122,34.3132,,34.3148,34.3135,0.3216,,0.3183,0.3467,1.6392,,-99.0,0.4122,0.3795,13.984,14.1098,15.0235,71.281,,20.7362,17.8799,0.0322,,,,-99.0,,-99.0,-99.0,26.9968,,26.9978,,0.6265,85.5034,,7.595,,1.0690E+03,,1.0000E-12,,6.0958,6.0950,0.8339,,4.648,23.694,,,,,,,,,,,,
CalCOFI,2007SR,009,10,2007_009u,14-Jul-2020 18:28:25,14-Jul-2020 10:28:25,32.18026,-118.88912,093.3 050.0,093.3,050.0,473.000,476.875,,6.1513,,6.1519,,6.1516,34.3112,,34.3114,34.3125,,34.3141,34.3128,0.3181,,0.3147,0.3431,1.6384,,-99.0,0.4100,0.3766,13.833,13.9522,14.8670,71.248,,20.6440,17.7555,0.0323,,,,-99.0,,-99.0,-99.0,26.9944,,26.9954,,0.6265,85.5034,,7.595,,1.0706E+03,,1.0000E-12,,6.1093,6.1099,0.8339,,4.600,23.691,,,,,,,,,,,,
CalCOFI,2007SR,009,10,2007_009u,14-Jul-2020 18:28:27,14-Jul-2020 10:28:27,32.18026,-118.88912,093.3 050.0,093.3,050.0,472.000,475.866,,6.1619,,6.1612,,6.1616,34.3100,,34.3102,34.3112,,34.3128,34.3115,0.3236,,0.3204,0.3487,1.6339,,-99.0,0.3974,0.3731,14.073,14.2027,15.1158,71.054,,20.1019,17.6089,0.0326,,,,-99.0,,-99.0,-99.0,26.9922,,26.9932,,0.6265,85.5034,,7.595,,1.0736E+03,,1.0000E-12,,6.1200,6.1193,0.8339,,4.681,23.631,,,,,,,,,,,,
CalCOFI,2007SR,009,10,2007_009u,14-Jul-2020 18:28:28,14-Jul-2020 10:28:28,32.18026,-118.88911,093.3 050.0,093.3,050.0,471.000,474.856,,6.1635,,6.1634,,6.1635,34.3096,,34.3098,34.3107,,34.3123,34.3111,0.3209,,0.3176,0.3460,1.6366,,-99.0,0.4049,0.3755,13.954,14.0785,14.9924,71.169,,20.4232,17.7078,0.0323,,,,-99.0,,-99.0,-99.0,26.9916,,26.9925,,0.6265,85.5034,,7.595,,1.0733E+03,,1.0000E-12,,6.1216,6.1215,0.8339,,4.641,23.670,,,,,,,,,,,,
CalCOFI,2007SR,009,10,2007_009u,14-Jul-2020 18:28:29,14-Jul-2020 10:28:29,32.18026,-118.88910,093.3 050.0,093.3,050.0,470.000,473.847,,6.1690,,6.1709,,6.1700,34.3085,,34.3087,34.3093,,34.3109,34.3098,0.3287,,0.3258,0.3540,1.6305,,-99.0,0.3878,0.3709,14.296,14.4355,15.3469,70.907,,19.6911,17.5190,0.0318,,,,-99.0,,-99.0,-99.0,26.9900,,26.9904,,0.6263,85.5084,,7.595,,1.0706E+03,,1.0000E-12,,6.1272,6.1291,0.8339,,4.755,23.587,,,,,,,,,,,,
CalCOFI,2007SR,009,10,2007_009u,14-Jul-2020 18:28:30,14-Jul-2020 10:28:30,32.18026,-118.88910,093.3 050.0,093.3,050.0,469.000,472.838,,6.1743,,6.1754,,6.1749,34.3074,,34.3076,34.3084,,34.3100,34.3088,0.3293,,0.3264,0.3546,1.6335,,-99.0,0.3962,0.3754,14.319,14.4595,15.3708,71.037,,20.0544,17.7126,0.0321,,,,-99.0,,-99.0,-99.0,26.9885,,26.9892,,0.6263,85.5081,,7.595,,1.0686E+03,,1.0000E-12,,6.1326,6.1337,0.8339,,4.764,23.632,,,,,,,,,,,,
CalCOFI,2007SR,009,10,2007_009u,14-Jul-2020 18:28:31,14-Jul-2020 10:28:31,32.18026,-118.88912,093.3 050.0,093.3,050.0,468.000,471.828,,6.1842,,6.1867,,6.1855,34.3067,,34.3069,34.3076,,34.3092,34.3081,0.3320,,0.3292,0.3574,1.6330,,-99.0,0.3948,0.3761,14.440,14.5858,15.4962,71.012,,19.9845,17.7404,0.0323,,,,-99.0,,-99.0,-99.0,26.9867,,26.9870,,0.6265,85.5034,,7.595,,1.0686E+03,,1.0000E-12,,6.1426,6.1450,0.8339,,4.805,23.630,,,,,,,,,,,,
CalCOFI,2007SR,009,10,2007_009u,14-Jul-2020 18:28:32,14-Jul-2020 10:28:32,32.18026,-118.88912,093.3 050.0,093.3,050.0,467.000,470.819,,6.1962,,6.1959,,6.1961,34.3057,,34.3059,34.3069,,34.3085,34.3072,0.3285,,0.3255,0.3538,1.6324,,-99.0,0.3931,0.3735,14.287,14.4261,15.3376,70.986,,19.9119,17.6248,0.0317,,,,-99.0,,-99.0,-99.0,26.9843,,26.9853,,0.6265,85.5034,,7.595,,1.0702E+03,,1.0000E-12,,6.1546,6.1543,0.8339,,4.755,23.627,,,,,,,,,,,,
CalCOFI,2007SR,009,10,2007_009u,14-Jul-2020 18:28:33,14-Jul-2020 10:28:33,32.18026,-118.88912,093.3 050.0,093.3,050.0,466.000,469.810,,6.1994,,6.1996,,6.1995,34.3053,,34.3055,34.3063,,34.3079,34.3067,0.3270,,0.3240,0.3523,1.6320,,-99.0,0.3920,0.3722,14.221,14.3572,15.2692,70.970,,19.8672,17.5682,0.0319,,,,-99.0,,-99.0,-99.0,26.9836,,26.9843,,0.6265,85.5034,,7.595,,1.0697E+03,,1.0000E-12,,6.1578,6.1581,0.8339,,4.734,23.623,,,,,,,,,,,,
CalCOFI,2007SR,009,10,2007_009u,14-Jul-2020 18:28:34,14-Jul-2020 10:28:34,32.18026,-118.88912,093.3 050.0,093.3,050.0,465.000,468.800,,6.2012,,6.2013,,6.2013,34.3052,,34.3054,34.3061,,34.3077,34.3066,0.3330,,0.3303,0.3585,1.6317,,-99.0,0.3912,0.3749,14.483,14.6307,15.5408,70.958,,19.8336,17.6872,0.0315,,,,-99.0,,-99.0,-99.0,26.9832,,26.9839,,0.6264,85.5054,,7.595,,1.0677E+03,,1.0000E-12,,6.1598,6.1599,0.8339,,4.821,23.620,,,,,,,,,,,,